GW1995 Weather Reports


time (UTC)temp
C
wind
direction
speed
KPH
gust
KPH
rain 1hr
cm
rain 24hr
cm
rain mn
cm
humidity
%
barometer
mb
20240418163206 8 279 8.0 14.5 0.00 0.00 0.00 50 1016.4
20240418162705 8 235 8.0 11.3 0.00 0.00 0.00 52 1016.5
20240418162205 8 239 8.0 12.9 0.00 0.00 0.00 54 1016.3
20240418161704 8 273 4.8 8.0 0.00 0.00 0.00 56 1016.4
20240418161203 8 278 9.7 11.3 0.00 0.00 0.00 55 1016.5
20240418160701 8 253 8.0 11.3 0.00 0.00 0.00 54 1016.5
20240418160200 8 246 12.9 16.1 0.00 0.00 0.00 54 1016.6
20240418155659 8 264 8.0 11.3 0.00 0.00 0.00 56 1016.6
20240418155158 8 280 8.0 9.7 0.00 0.00 0.00 56 1016.6
20240418154657 8 253 4.8 12.9 0.00 0.00 0.00 56 1016.5
20240418154156 8 193 6.4 9.7 0.00 0.00 0.00 55 1016.3
20240418153654 8 231 4.8 11.3 0.00 0.00 0.00 54 1016.3
20240418153153 8 209 4.8 12.9 0.00 0.00 0.00 54 1016.3
20240418152653 8 261 4.8 11.3 0.00 0.00 0.00 56 1016.2
20240418152151 8 239 4.8 8.0 0.00 0.00 0.00 58 1016.3
20240418151650 8 261 6.4 9.7 0.00 0.00 0.00 58 1016.2
20240418151148 8 233 6.4 14.5 0.00 0.00 0.00 58 1016.1
20240418150647 8 282 3.2 9.7 0.00 0.00 0.00 58 1016.0
20240418150145 8 265 4.8 8.0 0.00 0.00 0.00 58 1015.8
20240418145644 8 288 8.0 9.7 0.00 0.00 0.00 58 1016.0
20240418145142 8 203 6.4 8.0 0.00 0.00 0.00 57 1015.9
20240418144642 8 273 4.8 8.0 0.00 0.00 0.00 57 1015.9
20240418144141 8 274 3.2 4.8 0.00 0.00 0.00 56 1016.0
20240418143640 8 276 6.4 11.3 0.00 0.00 0.00 55 1016.0
20240418143138 8 290 3.2 8.0 0.00 0.00 0.00 56 1016.0
20240418142639 8 253 3.2 4.8 0.00 0.00 0.00 56 1016.0
20240418142137 8 273 1.6 8.0 0.00 0.00 0.00 56 1015.8
20240418141637 8 297 3.2 8.0 0.00 0.00 0.00 56 1015.9
20240418141136 8 267 6.4 9.7 0.00 0.00 0.00 58 1016.0
20240418140635 8 292 4.8 4.8 0.00 0.00 0.00 62 1016.0
20240418140133 8 1 8.0 14.5 0.00 0.00 0.00 63 1015.8
20240418135632 8 255 4.8 9.7 0.00 0.00 0.00 65 1015.7
20240418135131 8 307 4.8 9.7 0.00 0.00 0.00 66 1015.7
20240418134629 8 297 1.6 4.8 0.00 0.00 0.00 70 1015.9
20240418134129 8 239 3.2 8.0 0.00 0.00 0.00 76 1015.7
20240418133629 8 258 3.2 3.2 0.00 0.00 0.00 79 1015.8
20240418133127 8 262 4.8 11.3 0.00 0.00 0.00 81 1015.7
20240418132625 8 259 0.0 1.6 0.00 0.00 0.00 83 1015.6
20240418132122 7 242 0.0 3.2 0.00 0.00 0.00 84 1015.3
20240418131620 7 252 0.0 1.6 0.00 0.00 0.00 84 1015.4
20240418131119 7 232 1.6 3.2 0.00 0.00 0.00 85 1015.7
20240418130617 7 233 1.6 4.8 0.00 0.00 0.00 85 1015.9
20240418130117 7 267 4.8 8.0 0.00 0.00 0.00 86 1016.1
20240418125616 7 248 1.6 1.6 0.00 0.00 0.00 87 1015.7
20240418125114 7 240 0.0 1.6 0.00 0.00 0.00 87 1015.6
20240418124613 7 238 1.6 3.2 0.00 0.00 0.00 87 1015.6
20240418124111 7 244 1.6 3.2 0.00 0.00 0.00 88 1015.9
20240418123610 7 193 0.0 1.6 0.00 0.00 0.00 88 1015.9
20240418123108 7 218 1.6 3.2 0.00 0.00 0.00 89 1016.4
20240418122607 7 252 0.0 1.6 0.00 0.00 0.00 89 1016.4
20240418122105 7 235 1.6 3.2 0.00 0.00 0.00 90 1016.2
20240418121604 7 225 1.6 1.6 0.00 0.00 0.00 90 1015.6
20240418121102 7 214 1.6 3.2 0.00 0.00 0.00 90 1015.2
20240418120601 7 215 0.0 3.2 0.00 0.00 0.00 90 1015.1
20240418120100 7 236 1.6 1.6 0.00 0.00 0.00 91 1015.2
20240418115559 7 209 1.6 1.6 0.00 0.00 0.00 91 1015.1
20240418115058 7 219 0.0 4.8 0.00 0.00 0.00 91 1015.3
20240418114557 7 229 1.6 3.2 0.00 0.00 0.00 91 1015.3
20240418114057 7 206 1.6 1.6 0.00 0.00 0.00 91 1015.2
20240418113556 7 192 1.6 3.2 0.00 0.00 0.00 91 1015.0
20240418113054 7 202 1.6 1.6 0.00 0.00 0.00 90 1015.0
20240418112554 7 206 0.0 1.6 0.00 0.00 0.00 90 1014.9
20240418112053 7 206 1.6 1.6 0.00 0.00 0.00 89 1015.1
20240418111552 7 209 0.0 1.6 0.00 0.00 0.00 88 1015.1
20240418111050 7 209 0.0 1.6 0.00 0.00 0.00 88 1015.1
20240418110549 7 205 1.6 3.2 0.00 0.00 0.00 88 1015.4
20240418110049 7 221 1.6 3.2 0.00 0.00 0.00 88 1015.3
20240418105547 7 221 1.6 3.2 0.00 0.00 0.00 88 1015.2
20240418105045 7 231 1.6 1.6 0.00 0.00 0.00 88 1015.2
20240418104543 7 221 1.6 1.6 0.00 0.00 0.00 88 1015.1
20240418104041 7 219 3.2 3.2 0.00 0.00 0.00 88 1014.8
20240418103540 7 202 1.6 1.6 0.00 0.00 0.00 88 1014.7
20240418103038 7 214 0.0 1.6 0.00 0.00 0.00 88 1014.8
20240418102537 7 210 0.0 0.0 0.00 0.00 0.00 88 1014.7
20240418102037 7 210 1.6 1.6 0.00 0.00 0.00 88 1014.6
20240418101536 7 239 0.0 1.6 0.00 0.00 0.00 88 1014.7
20240418101035 7 233 0.0 1.6 0.00 0.00 0.00 89 1014.5
20240418100533 7 249 0.0 0.0 0.00 0.00 0.00 89 1014.9
20240418100031 7 353 1.6 1.6 0.00 0.00 0.00 89 1014.4
20240418095530 7 289 1.6 1.6 0.00 0.00 0.00 89 1014.7
20240418095029 7 221 1.6 3.2 0.00 0.00 0.00 90 1014.2
20240418094529 7 222 0.0 0.0 0.00 0.00 0.00 90 1014.1
20240418094028 6 232 0.0 3.2 0.00 0.00 0.00 90 1014.0
20240418093528 6 204 1.6 1.6 0.00 0.00 0.00 90 1013.8
20240418093026 6 218 1.6 3.2 0.00 0.00 0.00 90 1014.1
20240418092525 6 217 0.0 1.6 0.00 0.00 0.00 89 1013.9
20240418092023 6 226 3.2 3.2 0.00 0.00 0.00 89 1013.9
20240418091522 7 226 0.0 1.6 0.00 0.00 0.00 89 1014.0
20240418091023 7 228 0.0 0.0 0.00 0.00 0.00 89 1013.8
20240418090521 7 227 0.0 1.6 0.00 0.00 0.00 89 1013.5
20240418090021 7 225 1.6 1.6 0.00 0.00 0.00 88 1013.4
20240418085520 7 241 0.0 1.6 0.00 0.00 0.00 88 1013.4
20240418085020 7 246 0.0 1.6 0.00 0.00 0.00 87 1013.3
20240418084519 7 246 0.0 0.0 0.00 0.00 0.00 87 1013.7
20240418084018 7 247 0.0 0.0 0.00 0.00 0.00 86 1013.6
20240418083518 7 246 0.0 0.0 0.00 0.00 0.00 86 1013.7
20240418083016 7 246 0.0 1.6 0.00 0.00 0.00 86 1013.8
20240418082514 7 257 0.0 0.0 0.00 0.00 0.00 86 1014.0
20240418082014 7 256 0.0 0.0 0.00 0.00 0.00 87 1014.1
20240418081512 7 265 0.0 0.0 0.00 0.00 0.00 87 1014.1
20240418081011 7 242 0.0 3.2 0.00 0.00 0.00 87 1013.9
20240418080510 7 258 0.0 1.6 0.00 0.00 0.00 87 1014.1
20240418080010 7 270 0.0 1.6 0.00 0.00 0.00 87 1013.7
20240418075508 7 253 0.0 1.6 0.00 0.00 0.00 87 1013.8
20240418075008 7 252 0.0 1.6 0.00 0.00 0.00 88 1013.7
20240418074507 6 251 0.0 1.6 0.00 0.00 0.00 88 1013.5
20240418074007 6 221 0.0 0.0 0.00 0.00 0.00 88 1013.4
20240418073507 6 220 0.0 1.6 0.00 0.00 0.00 88 1013.5
20240418073006 6 208 0.0 1.6 0.00 0.00 0.00 88 1013.6
20240418072506 6 215 1.6 1.6 0.00 0.00 0.00 88 1013.8
20240418072004 6 217 1.6 1.6 0.00 0.00 0.00 87 1013.4
20240418071503 6 219 1.6 1.6 0.00 0.00 0.00 87 1013.4
20240418071001 6 222 1.6 3.2 0.00 0.00 0.00 87 1013.7
20240418070500 6 224 0.0 1.6 0.00 0.00 0.00 87 1013.7
20240418065958 6 212 1.6 1.6 0.00 0.00 0.00 87 1013.8
20240418065456 6 229 0.0 3.2 0.00 0.00 0.00 87 1013.5
20240418064956 6 186 3.2 3.2 0.00 0.00 0.00 87 1013.5
20240418064455 6 230 1.6 3.2 0.00 0.00 0.00 87 1013.6
20240418063953 6 220 1.6 3.2 0.00 0.00 0.00 87 1013.6
20240418063453 6 207 3.2 3.2 0.00 0.00 0.00 87 1013.6
20240418062952 6 215 0.0 1.6 0.00 0.00 0.00 88 1012.9
20240418062452 6 215 0.0 1.6 0.00 0.00 0.00 88 1012.8
20240418061951 6 219 0.0 1.6 0.00 0.00 0.00 88 1013.3
20240418061449 6 211 1.6 3.2 0.00 0.00 0.00 88 1013.2
20240418060948 6 211 1.6 1.6 0.00 0.00 0.00 88 1013.0
20240418060448 6 205 1.6 3.2 0.00 0.00 0.00 88 1012.9
20240418055946 6 218 1.6 1.6 0.00 0.00 0.00 88 1012.8
20240418055445 5 218 0.0 0.0 0.00 0.00 0.00 88 1013.3
20240418054945 6 219 0.0 0.0 0.00 0.00 0.00 88 1013.3
20240418054443 5 219 0.0 0.0 0.00 0.00 0.00 88 1013.0
20240418053941 5 219 0.0 0.0 0.00 0.00 0.00 88 1013.3
20240418053439 5 229 1.6 1.6 0.00 0.00 0.00 88 1013.7
20240418052937 5 230 1.6 1.6 0.00 0.00 0.00 88 1013.5
20240418052437 6 230 1.6 1.6 0.00 0.00 0.00 87 1012.8
20240418051936 6 230 1.6 1.6 0.00 0.00 0.00 86 1012.4
20240418051436 6 230 0.0 0.0 0.00 0.00 0.00 86 1012.0
20240418050937 6 230 0.0 1.6 0.00 0.00 0.00 86 1012.4
20240418050435 6 230 0.0 1.6 0.00 0.00 0.00 85 1012.5
20240418045933 6 230 0.0 0.0 0.00 0.03 0.03 86 1012.5
20240418045431 6 230 0.0 1.6 0.00 0.03 0.03 86 1012.5
20240418044930 6 230 0.0 0.0 0.00 0.03 0.03 86 1012.8
20240418044429 6 229 1.6 1.6 0.00 0.03 0.03 85 1012.6
20240418043927 6 229 1.6 1.6 0.00 0.03 0.03 84 1012.5
20240418043427 6 230 0.0 0.0 0.00 0.03 0.03 85 1012.9
20240418042927 6 230 0.0 1.6 0.00 0.03 0.03 84 1013.0
20240418042426 6 230 0.0 1.6 0.00 0.03 0.03 84 1013.0
20240418041924 7 230 0.0 1.6 0.00 0.03 0.03 83 1012.9
20240418041422 7 229 1.6 1.6 0.00 0.03 0.03 81 1013.1
20240418040922 7 231 1.6 1.6 0.00 0.03 0.03 81 1013.1
20240418040421 7 313 0.0 0.0 0.00 0.03 0.03 80 1012.8
20240418035919 7 313 0.0 0.0 0.00 0.03 0.03 80 1012.9
20240418035419 7 297 0.0 0.0 0.00 0.03 0.03 81 1012.9
20240418034918 7 262 1.6 1.6 0.00 0.03 0.03 81 1012.8
20240418034417 7 240 0.0 0.0 0.00 0.03 0.03 80 1012.9
20240418033915 7 239 1.6 1.6 0.00 0.03 0.03 79 1013.0
20240418033413 7 240 0.0 1.6 0.00 0.03 0.03 78 1012.8
20240418032913 8 240 1.6 1.6 0.00 0.03 0.03 77 1012.8
20240418032412 8 238 1.6 1.6 0.00 0.03 0.03 77 1012.8
20240418031911 8 248 1.6 3.2 0.00 0.03 0.03 76 1013.0
20240418031410 8 229 1.6 3.2 0.00 0.03 0.03 75 1013.2
20240418030911 8 214 3.2 4.8 0.00 0.03 0.03 74 1013.2
20240418030409 8 241 1.6 3.2 0.00 0.03 0.03 74 1013.1
20240418025909 8 253 1.6 3.2 0.00 0.03 0.03 73 1013.3
20240418025408 9 245 3.2 4.8 0.00 0.03 0.03 72 1013.4
20240418024907 9 252 3.2 3.2 0.00 0.03 0.03 71 1013.2
20240418024407 10 254 4.8 4.8 0.00 0.03 0.03 70 1013.2
20240418023907 10 236 3.2 3.2 0.00 0.03 0.03 69 1012.8
20240418023406 10 242 3.2 3.2 0.00 0.03 0.03 68 1012.6
20240418022905 10 266 1.6 3.2 0.00 0.03 0.03 67 1012.6
20240418022404 10 288 3.2 3.2 0.00 0.03 0.03 67 1012.5
20240418021903 10 282 4.8 9.7 0.00 0.03 0.03 66 1012.5
20240418021402 10 260 3.2 8.0 0.00 0.03 0.03 67 1012.3
20240418020901 10 246 4.8 8.0 0.00 0.03 0.03 67 1012.4
20240418020400 10 286 4.8 4.8 0.00 0.03 0.03 67 1012.3
20240418015859 10 303 3.2 9.7 0.00 0.03 0.03 67 1012.2
20240418015358 10 248 3.2 8.0 0.00 0.03 0.03 67 1012.1
20240418014858 11 293 4.8 11.3 0.00 0.03 0.03 66 1011.9
20240418014357 11 268 3.2 8.0 0.00 0.03 0.03 67 1011.7
20240418013856 11 285 3.2 8.0 0.00 0.03 0.03 67 1011.6
20240418013356 11 268 3.2 4.8 0.00 0.03 0.03 67 1011.5
20240418012854 11 265 1.6 8.0 0.00 0.03 0.03 66 1011.3
20240418012352 11 265 8.0 9.7 0.00 0.03 0.03 66 1011.1
20240418011850 11 259 4.8 4.8 0.00 0.03 0.03 65 1010.9
20240418011350 11 274 1.6 4.8 0.00 0.03 0.03 64 1011.0
20240418010848 11 301 4.8 9.7 0.00 0.03 0.03 63 1010.8
20240418010347 11 275 4.8 12.9 0.00 0.03 0.03 62 1010.8
20240418005847 11 305 4.8 9.7 0.00 0.03 0.03 62 1010.4
20240418005346 11 278 4.8 14.5 0.00 0.03 0.03 61 1010.3
20240418004845 11 277 11.3 14.5 0.00 0.03 0.03 61 1010.4
20240418004345 11 291 8.0 11.3 0.00 0.03 0.03 62 1010.1
20240418003844 11 279 8.0 12.9 0.00 0.03 0.03 63 1010.1
20240418003344 11 304 8.0 12.9 0.00 0.03 0.03 63 1010.2
20240418002843 11 240 6.4 11.3 0.00 0.03 0.03 61 1010.2
20240418002342 11 265 8.0 11.3 0.00 0.03 0.03 60 1010.1
20240418001841 11 321 11.3 12.9 0.00 0.03 0.03 61 1009.9
20240418001340 11 284 4.8 11.3 0.00 0.03 0.03 61 1009.9
20240418000838 12 273 6.4 9.7 0.00 0.03 0.03 60 1009.8
20240418000336 12 302 8.0 14.5 0.00 0.03 0.03 59 1009.8
20240417235834 12 270 3.2 11.3 0.00 0.03 0.03 59 1009.7
20240417235333 12 271 14.5 17.7 0.00 0.03 0.03 58 1009.7
20240417234831 12 259 8.0 9.7 0.00 0.03 0.03 58 1009.4
20240417234330 12 249 11.3 14.5 0.00 0.03 0.03 58 1009.2
20240417233829 12 277 8.0 12.9 0.00 0.03 0.03 58 1009.3
20240417233329 12 298 8.0 14.5 0.00 0.03 0.03 58 1009.2
20240417232827 12 260 3.2 9.7 0.00 0.03 0.03 59 1009.3
20240417232327 12 217 8.0 11.3 0.00 0.03 0.03 59 1009.1
20240417231827 12 312 4.8 9.7 0.00 0.03 0.03 60 1009.1
20240417231325 12 289 11.3 17.7 0.00 0.03 0.03 60 1009.0
20240417230825 12 290 8.0 11.3 0.00 0.03 0.03 62 1008.9
20240417230323 12 251 8.0 12.9 0.00 0.03 0.03 61 1008.9
20240417225822 12 304 6.4 12.9 0.00 0.03 0.03 61 1008.9
20240417225322 12 276 11.3 11.3 0.00 0.03 0.03 61 1008.7
20240417224820 12 301 8.0 14.5 0.00 0.03 0.03 61 1008.6
20240417224318 12 288 8.0 16.1 0.00 0.03 0.03 60 1008.6
20240417223817 12 295 8.0 14.5 0.00 0.03 0.03 60 1008.6
20240417223317 12 304 12.9 17.7 0.00 0.03 0.03 62 1008.4
20240417222817 12 302 11.3 17.7 0.00 0.03 0.03 61 1008.3
20240417222317 12 307 11.3 17.7 0.00 0.03 0.03 63 1008.4
20240417221816 11 280 12.9 16.1 0.00 0.03 0.03 64 1008.1
20240417221314 11 262 4.8 14.5 0.00 0.03 0.03 65 1008.2
20240417220814 11 289 11.3 16.1 0.00 0.03 0.03 64 1007.8
20240417220311 11 301 12.9 16.1 0.00 0.03 0.03 65 1007.6
20240417215810 11 281 11.3 12.9 0.00 0.03 0.03 66 1007.6
20240417215308 11 249 8.0 22.5 0.00 0.03 0.03 66 1007.5
20240417214806 11 281 8.0 11.3 0.00 0.03 0.03 66 1007.1
20240417214304 11 295 11.3 14.5 0.00 0.03 0.03 65 1007.3
20240417213803 11 282 12.9 20.9 0.00 0.03 0.03 65 1007.0
20240417213303 11 274 11.3 16.1 0.00 0.03 0.03 66 1006.9
20240417212802 11 345 11.3 12.9 0.00 0.03 0.03 66 1006.9
20240417212301 11 256 8.0 12.9 0.00 0.03 0.03 67 1006.8
20240417211800 11 244 6.4 9.7 0.00 0.03 0.03 68 1006.8
20240417211259 11 291 9.7 14.5 0.00 0.03 0.03 67 1006.6
20240417210757 11 259 4.8 9.7 0.00 0.03 0.03 68 1006.4
20240417210256 11 280 8.0 11.3 0.00 0.03 0.03 69 1006.4
20240417205755 11 274 4.8 11.3 0.00 0.03 0.03 70 1006.4
20240417205253 11 280 11.3 16.1 0.00 0.03 0.03 69 1006.3
20240417204751 11 269 8.0 11.3 0.00 0.03 0.03 70 1006.4
20240417204248 11 323 8.0 12.9 0.00 0.03 0.03 71 1006.3
20240417203746 10 280 11.3 16.1 0.00 0.03 0.03 71 1006.1
20240417203245 10 320 11.3 14.5 0.00 0.03 0.03 71 1006.2
20240417202743 10 245 4.8 12.9 0.00 0.03 0.03 71 1006.2
20240417202240 11 267 9.7 11.3 0.00 0.03 0.03 71 1006.1
20240417201739 11 299 8.0 12.9 0.00 0.03 0.03 71 1006.0
20240417201237 10 275 8.0 12.9 0.00 0.03 0.03 71 1005.9
20240417200736 11 271 4.8 11.3 0.00 0.03 0.03 71 1005.8
20240417200235 11 290 14.5 17.7 0.00 0.03 0.03 71 1006.0
20240417195734 10 318 14.5 20.9 0.00 0.03 0.03 72 1005.8
20240417195233 10 291 11.3 20.9 0.00 0.03 0.03 74 1005.8
20240417194733 10 244 11.3 12.9 0.00 0.03 0.03 76 1006.0
20240417194231 10 288 9.7 11.3 0.00 0.03 0.03 76 1005.6
20240417193731 9 303 9.7 14.5 0.00 0.03 0.03 77 1005.6
20240417193230 9 246 4.8 11.3 0.00 0.03 0.03 78 1005.5
20240417192730 9 264 8.0 11.3 0.00 0.03 0.03 77 1005.4
20240417192229 10 259 4.8 12.9 0.00 0.03 0.03 77 1005.3
20240417191728 10 258 11.3 14.5 0.00 0.03 0.03 75 1005.1
20240417191228 10 272 8.0 12.9 0.00 0.03 0.03 75 1004.9
20240417190726 10 264 8.0 16.1 0.00 0.03 0.03 74 1004.8
20240417190225 10 329 9.7 17.7 0.00 0.03 0.03 73 1004.8
20240417185724 10 250 12.9 17.7 0.00 0.03 0.03 73 1004.6
20240417185224 10 260 4.8 9.7 0.00 0.03 0.03 76 1004.6
20240417184722 9 268 8.0 14.5 0.00 0.03 0.03 76 1004.2
20240417184221 9 291 14.5 25.7 0.00 0.03 0.03 76 1004.3
20240417183721 9 339 3.2 11.3 0.00 0.03 0.03 78 1004.1
20240417183219 8 289 11.3 14.5 0.00 0.03 0.03 78 1004.3
20240417182718 8 307 8.0 20.9 0.00 0.03 0.03 79 1004.1
20240417182218 8 269 6.4 11.3 0.00 0.03 0.03 80 1004.1
20240417181715 8 262 9.7 14.5 0.00 0.03 0.03 81 1004.0
20240417181214 8 277 9.7 11.3 0.00 0.03 0.03 80 1004.0
20240417180712 8 288 8.0 16.1 0.00 0.03 0.03 80 1003.9
20240417180210 8 278 4.8 9.7 0.00 0.03 0.03 80 1003.6
20240417175708 8 268 6.4 14.5 0.00 0.03 0.03 79 1003.5
20240417175207 8 319 11.3 12.9 0.00 0.03 0.03 79 1003.6
20240417174706 8 283 6.4 14.5 0.00 0.03 0.03 80 1003.6
20240417174205 8 274 11.3 17.7 0.00 0.03 0.03 79 1003.5
20240417173704 8 301 9.7 17.7 0.18 0.03 0.03 79 1003.1
20240417173203 8 288 11.3 20.9 0.18 0.03 0.03 78 1003.1
20240417172701 8 271 11.3 16.1 0.00 0.00 0.00 79 1002.9
20240417172200 8 336 9.7 25.7 0.00 0.00 0.00 79 1002.6
20240417171658 8 287 11.3 22.5 0.00 0.00 0.00 80 1002.6
20240417171157 8 304 8.0 16.1 0.00 0.00 0.00 81 1002.5
20240417170655 8 292 14.5 17.7 0.00 0.00 0.00 81 1002.5
20240417170154 8 327 9.7 16.1 0.00 0.00 0.00 81 1002.4
20240417165653 8 308 11.3 16.1 0.00 0.00 0.00 82 1002.5
20240417165153 8 305 9.7 12.9 0.00 0.00 0.00 84 1002.4
20240417164653 7 280 4.8 11.3 0.00 0.00 0.00 85 1002.0
20240417164151 7 305 8.0 17.7 0.00 0.00 0.00 86 1002.1
20240417163649 7 263 6.4 11.3 0.00 0.00 0.00 87 1001.9